Flag for Spain Weather past 2 weeks in Las Palmas, Canary Islands, Spain

Now
70 °F

Broken clouds.


Feels Like: 70 °F
Forecast: 63 / 69 °F
Wind: 23 mph from Northeast

Location: Las Palmas De Gran Canaria / Gando

Current Time: Apr 27, 2015 at 1:35:37 PM

Latest Report: Apr 27, 2015 at 1:00 PM


Visibility: N/A

Pressure: 30.12 "Hg

Humidity: 64%

Dew point: 57 °F

Location of Las PalmasLocation

Historic Weather in Las Palmas — Graph

°F

Las Palmas temperature yesterday

Maximum temperature yesterday: 73 °F (at 12:30 PM)
Minimum temperature yesterday: 61 °F (at 6:30 AM)
Average temperature yesterday: 68 °F

Past Weeks' High & Low Weather Summary

 TemperatureHumidityPressure
High73 °F (Apr 26, 12:30 PM)88% (Apr 25, 4:00 AM)30.15 "Hg (Apr 25, 4:00 AM)
Low57 °F (Apr 13, 8:00 AM)44% (Apr 20, 2:30 PM)30.01 "Hg (Apr 14, 4:30 AM)
Average66 °F65%30.09 "Hg
* Reported Apr 12 12:00 Noon — Apr 27 12:30 PM, Las Palmas, Weather by CustomWeather, © 2015

Note: Actual official high and low records may vary slightly from our data, if they occured in-between our weather recording intervals... More about our weather records

Advertising

Las Palmas weather history for previous 24 hours

 ConditionsComfort  
Time TempWeatherWind HumidityBarometerVisibility
12:30 PM
Mon, Apr 27
68 °FBroken clouds.21 mph73%30.15 "HgN/A
12:00 PM68 °FBroken clouds.21 mph73%30.15 "HgN/A
11:30 AM68 °FBroken clouds.17 mph78%30.15 "HgN/A
11:00 AM68 °FBroken clouds.17 mph78%30.15 "HgN/A
10:30 AM68 °FBroken clouds.17 mph83%30.12 "HgN/A
10:00 AM70 °FScattered clouds.18 mph78%30.12 "HgN/A
9:30 AM70 °FPassing clouds.15 mph73%30.12 "HgN/A
9:00 AM68 °FPassing clouds.15 mph78%30.12 "HgN/A
8:30 AM68 °FPassing clouds.13 mph78%30.09 "HgN/A
8:00 AM66 °FPassing clouds.13 mph83%30.09 "HgN/A
7:30 AM66 °FPassing clouds.13 mph78%30.09 "HgN/A
7:00 AM68 °FPassing clouds.14 mph73%30.09 "HgN/A
6:30 AM66 °FPassing clouds.13 mph78%30.09 "HgN/A
6:00 AM68 °FPassing clouds.12 mph69%30.09 "HgN/A
5:30 AM68 °FPassing clouds.13 mph73%30.09 "HgN/A
5:00 AM68 °FPassing clouds.12 mph73%30.09 "HgN/A
4:30 AM66 °FPassing clouds.13 mph78%30.09 "HgN/A
4:00 AM66 °FPartly cloudy.17 mph83%30.09 "HgN/A
3:30 AM68 °FPassing clouds.14 mph78%30.09 "HgN/A
3:00 AM68 °FPassing clouds.15 mph73%30.12 "HgN/A
2:30 AM66 °FPassing clouds.13 mph78%30.12 "HgN/A
2:00 AM66 °FPassing clouds.15 mph78%30.12 "HgN/A
1:30 AM66 °FPassing clouds.13 mph73%30.12 "HgN/A
1:00 AM66 °FPassing clouds.12 mph78%30.12 "HgN/A
12:30 AM66 °FPassing clouds.13 mph78%30.15 "HgN/A
12:00 AM68 °FPassing clouds.14 mph69%30.15 "HgN/A
11:30 PM
Sun, Apr 26
68 °FPassing clouds.12 mph69%30.15 "HgN/A
11:00 PM68 °FPassing clouds.12 mph69%30.15 "HgN/A
10:30 PM66 °FPassing clouds.13 mph78%30.15 "HgN/A
10:00 PM68 °FPassing clouds.13 mph69%30.12 "HgN/A
9:30 PM68 °FPassing clouds.14 mph73%30.12 "HgN/A
9:00 PM68 °FPassing clouds.16 mph78%30.12 "HgN/A
8:30 PM68 °FPassing clouds.17 mph73%30.09 "HgN/A
8:00 PM68 °FPassing clouds.20 mph73%30.09 "HgN/A
7:30 PM70 °FPassing clouds.20 mph73%30.09 "HgN/A
7:00 PM70 °FPassing clouds.22 mph73%30.07 "HgN/A
6:30 PM70 °FPassing clouds.24 mph69%30.07 "HgN/A
6:00 PM72 °FPassing clouds.25 mph69%30.07 "HgN/A
5:30 PM73 °FPassing clouds.25 mph65%30.07 "HgN/A
5:00 PM72 °FPassing clouds.26 mph65%30.07 "HgN/A
4:30 PM72 °FPassing clouds.29 mph69%30.07 "HgN/A
4:00 PM72 °FPassing clouds.28 mph69%30.07 "HgN/A
3:30 PM73 °FPassing clouds.28 mph65%30.07 "HgN/A
3:00 PM73 °FPassing clouds.25 mph65%30.07 "HgN/A
2:30 PM73 °FPassing clouds.25 mph61%30.09 "HgN/A
2:00 PM73 °FPassing clouds.23 mph61%30.09 "HgN/A
1:30 PM73 °FPassing clouds.23 mph57%30.09 "HgN/A
1:00 PM73 °FPassing clouds.22 mph57%30.12 "HgN/A
Weather by CustomWeather, © 2015

See weather overviewHow to use our weather pages